Regional Weather Roundup
Issued by NWS

Home | Current Version | Previous Version | Text Only | Print | Product List | Glossary Off
Versions: 1 2 3 4 5 6 7 8 9 10 11 12 13 14 15 16 17 18 19 20 21 22 23 24 25 26 27 28 29 30 31 32 33 34 35 36 37 38 39 40 41 42 43 44 45 46 47 48 49 50

689
ASUS45 KBOU 252307
RWRCO

WEATHER ROUNDUP FOR COLORADO
NATIONAL WEATHER SERVICE DENVER/BOULDER CO
400 PM MST SAT FEB 25 2017

NOTE: "FAIR" INDICATES FEW OR NO CLOUDS BELOW 12000 FEET WITH NO
SIGNIFICANT WEATHER AND/OR OBSTRUCTIONS TO VISIBILITY.

COZ001>005-013-030-031-260000-
...NORTHWEST COLORADO...

CITY           SKY/WX    TMP DP  RH WIND       PRES   REMARKS
CRAIG          CLOUDY    23   9  55 W15       29.88F WCI  10
HAYDEN         FAIR      19   9  63 NW14      29.86F WCI   6
MEEKER         FLURRIES  24  16  71 CALM      29.88F
MOUNT WERNER   NOT AVBL
STEAMBOAT SPGS CLOUDY    18  10  73 W6        29.85F WCI   9
WALDEN         NOT AVBL
$$

COZ006>008-011-260000-
...WEST CENTRAL VALLEYS...

CITY           SKY/WX    TMP DP  RH WIND       PRES   REMARKS
GRAND JUNCTION FAIR      36  10  34 CALM      29.92F
MONTROSE       CLOUDY    36   3  25 NW13      29.91F
EAGLE          MOSUNNY   25  10  54 SW18      29.89F WCI  11
RIFLE          FAIR      33  10  38 W15       29.90F WCI  23
DELTA          CLOUDY    40   2  20 W3        29.92F
NUCLA          NOT AVBL
$$

COZ017>023-064>068-260000-
...SOUTHWEST COLORADO...

CITY           SKY/WX    TMP DP  RH WIND       PRES   REMARKS
DURANGO        FAIR      35   5  28 NW16G23   29.90F WCI  25
CORTEZ         FAIR      37   6  27 W13       29.93F
PAGOSA SPRINGS CLOUDY    32   3  29 SW14G22   29.88F WCI  22
TELLURIDE      CLOUDY    21   4  47 W6        29.88F WCI  13
WOLF CREEK PAS SNOW       5   5 100 SW29G43   29.80S VSB 1/2 WCI -19
$$

COZ009-010-012-014-032>034-037-058>063-260000-
...CENTRAL COLORADO...

CITY           SKY/WX    TMP DP  RH WIND       PRES   REMARKS
ASPEN          CLOUDY    18   9  68 N6        29.84F HAZE    WCI  10
BUENA VISTA    PTSUNNY   22   1  39 W16G23    29.81F WCI   8
COPPER MTN     NOT AVBL
BERTHOUD PASS  HAZE      -6 -15  65 MISG      29.60S VSB 1
COTTONWOOD PAS CLOUDY    18  -2  41 W10G25    29.75S WCI   6
GUNNISON       FAIR      20   6  55 CALM      29.86F
KREMMLING      LGT SNOW  23  16  74 SW8       29.83F WCI  14
LEADVILLE      LGT SNOW   8   1  73 W7        29.74S WCI  -3
MONARCH PASS   CLOUDY     3  -2  78 W36G49    29.78F WCI -23
SALIDA         FAIR      28  -3  26 W20G32    29.91S WCI  15
SUNLIGHT       NOT AVBL
WILKERSON PASS PTSUNNY   10  -9  40 W9G23     29.71S WCI  -2
$$

COZ069>075-260000-
...SAN LUIS VALLEY/SANGRE DE CRISTO MOUNTAINS...

CITY           SKY/WX    TMP DP  RH WIND       PRES   REMARKS
ALAMOSA        FAIR      33   7  33 SW25G33   29.81S WCI  20
LA VETA PASS   CLOUDY    21   5  49 S18G35    29.74S WCI   6
SAGUACHE       FAIR      28   1  31 NW26G32   29.82F WCI  13
$$

COZ035-036-038>040-260000-
...NORTHERN COLORADO FRONT RANGE...

CITY           SKY/WX    TMP DP  RH WIND       PRES   REMARKS
DENVER INTL AP FAIR      36  -2  20 NW25G38   29.78F
DMNS CITY PARK   N/A     35  -5  17 W13G29    29.79S WCI  26
AURORA         PTSUNNY   33  -1  23 N9        29.79S WCI  25
FRONT RANGE AP NOT AVBL
ERIE MUNI ARPT FAIR      36   1  23 W16G26    29.82S
BOULDER MUN AP FAIR      34   7  32 NW14G20   29.80S WCI  24
CENTENNIAL     PTSUNNY   35  -1  21 W17G26    29.78S WCI  25
BROOMFIELD     PTSUNNY   36   0  21 NW14G22   29.79F
FORT COLLINS   FAIR      34   4  28 W13       29.82S WCI  25
LONGMONT       FAIR      37   8  30 W12       29.84R
$$

COZ041-046-047-076>085-087-088-260000-
...PIKES PEAK/PALMER DIVIDE AND SOUTHERN FOOTHILLS...

CITY           SKY/WX    TMP DP  RH WIND       PRES   REMARKS
COLO. SPRINGS  FAIR      39  -6  14 W15G25    29.76S
A. F. ACADEMY  FAIR      33  -5  19 W7        29.76R WCI  27
SCHRIEVER AFB  FAIR      37  -8  14 NW17G30   29.76S
ELLICOTT       NOT AVBL
FALCON         FAIR      36  -9  14 W15G23    29.77R
FORT CARSON    FAIR      39  -9  12 W25G38    29.76S
LIMON          CLOUDY    36  -4  18 S13G18    29.77F
MONUMENT HILL  FAIR      28   3  34 NW15G21   29.77S WCI  17
TRINIDAD       FAIR      45  -1  14 W14       29.78S
$$

COZ042>045-048>051-090-091-260000-
...NORTHEAST COLORADO...

CITY           SKY/WX    TMP DP  RH WIND       PRES   REMARKS
GREELEY ARPT   FAIR      38   7  27 W15G22    29.82F
AKRON          FAIR      33  18  53 E3        29.82F
BURLINGTON     FAIR      40   6  24 E8        29.85F
WRAY           NOT AVBL
STERLING       FAIR      32  18  55 CALM      29.84F
HOLYOKE        FAIR      36  19  51 N8        29.87F
FORT MORGAN    FAIR      33  16  49 CALM      29.83F
$$

COZ086-089-092>099-260000-
...SOUTHEAST COLORADO...

CITY           SKY/WX    TMP DP  RH WIND       PRES   REMARKS
PUEBLO         FAIR      44  -6  12 W29G37    29.77F
LA JUNTA       FAIR      48  -3  12 W16G24    29.79F
LAMAR          FAIR      46   2  16 VRB3      29.81F
SPRINGFIELD      N/A     46   3  17 S12       29.81F
$$




USA.gov is the U.S. government's official web portal to all federal, state and local government web resources and services.